[[{"header":{"parameterUnit":"m.s-1","parameterCategory":1,"la1":30.2991,"la2":30.254,"lo1":-89.0895,"lo2":-89.0444,"dy":0.0017,"dx":0.0017,"nx":28,"ny":28,"refTime":"2025-07-20T09:00:00:Z","depth":0,"parameterNumber":2,"parameterNumberName":"U-component_of_WINDS"},"data":[0,0,0,0,0,0,0,0,0,0,0,0,0,0,0,0,0,0,0,0,0,0,0,0,0,0,0,0,0,0,0,0,0,0,0,0,0,0,0,0,0,0,0,0,0,0,0,0,0,0,0,0,0,0,0,0,0,0,3.1026,3.1028,0,3.117,3.1172,3.1174,3.1149,3.1147,3.1144,3.1142,3.1293,3.1299,3.1305,0,0,0,0,0,0,0,0,0,0,0,0,0,3.0733,3.0739,3.1026,3.1028,3.103,3.117,3.1172,3.1174,3.115,3.1147,3.1144,3.1141,3.1291,3.1298,3.1306,0,0,0,0,0,0,0,0,0,0,0,0,0,3.0867,3.074,3.1026,3.1035,3.1037,3.117,3.1172,3.1175,3.115,3.1147,3.1143,3.1139,3.1288,3.1298,3.1307,3.1442,0,0,3.1336,3.134,0,0,0,0,0,0,0,0,3.086,3.0878,3.1031,3.1034,3.1037,3.1138,3.1124,3.1264,3.1151,3.1107,3.1142,3.1137,3.1245,3.1258,3.1293,3.1449,3.1455,3.1337,3.1343,3.1347,3.135,0,0,0,0,0,0,0,3.085,3.0872,3.1083,3.1034,3.1037,3.1032,3.1047,3.1151,3.1196,3.1111,3.1109,3.1127,3.1245,3.1284,3.1296,3.1457,3.1337,3.1345,3.1351,3.1355,3.1731,3.1735,0,0,0,0,0,0,3.0838,3.0864,3.1079,3.1088,3.0937,3.1041,3.1057,3.1109,3.1194,3.1204,3.113,3.1125,3.1269,3.1285,3.1302,3.1465,3.1347,3.1356,3.1361,3.1727,3.1732,3.1736,0,0,0,0,0,0,3.0832,3.0857,3.1073,3.0976,3.1003,3.105,3.1108,3.1114,3.1152,3.1209,3.1217,3.116,3.1267,3.1288,3.1407,3.1469,3.136,3.1369,3.1722,3.1728,3.1734,3.1791,0,0,0,0,0,0,3.0824,3.0855,3.0906,3.0977,3.1008,3.1175,3.1112,3.112,3.1169,3.1164,3.124,3.1249,3.1266,3.1393,3.1416,3.1481,3.1376,3.1716,3.1725,3.1732,3.1784,3.1799,3.1812,0,0,0,0,0,3.0813,3.0918,3.0909,3.0935,3.1072,3.1178,3.1196,3.1213,3.1174,3.1226,3.1262,3.1246,3.1459,3.1405,3.1431,3.15,3.1712,3.1722,3.1731,3.1778,3.1796,3.1811,0,0,0,0,0,0,3.0854,3.0927,3.0918,3.1048,3.1107,3.1174,3.124,3.1232,3.1304,3.1296,3.1315,3.1333,3.1453,3.1488,3.1427,3.1634,3.158,3.1596,3.1607,3.1624,3.1638,3.1627,3.1384,0,0,0,0,0,3.0878,3.0957,3.1017,3.1126,3.1156,3.1193,3.124,3.1248,3.131,3.1335,3.138,3.1442,3.1522,3.1575,3.1653,3.1789,3.1806,3.1849,3.1863,3.1874,3.1887,3.1962,3.1982,3.1768,3.1768,3.1768,0,0,3.0929,3.0978,3.1028,3.1136,3.1182,3.1265,3.1214,3.1304,3.1365,3.1349,3.1463,3.1498,3.1569,3.1697,3.1756,3.173,3.195,3.1886,3.1895,3.1902,3.1974,3.1994,3.2012,3.1774,3.1773,3.1772,0,0,3.1063,3.1109,3.1204,3.1252,3.1322,3.1346,3.1369,3.1438,3.146,3.1575,3.1564,3.1638,3.1777,3.1828,3.1872,3.2025,3.2014,3.205,3.2122,3.2195,3.2212,3.2227,3.2281,3.2301,3.2063,3.2063,3.2063,0,3.1118,3.124,3.1255,3.1345,3.1393,3.1381,3.1479,3.1524,3.1617,3.1651,3.1621,3.1795,3.1841,3.1981,3.2018,3.2054,3.2082,3.2041,3.2208,3.2223,3.2237,3.229,3.231,3.2067,3.2067,3.2066,3.2066,0,3.1304,3.1389,3.1458,3.1547,3.1603,3.1696,3.1726,3.1781,3.1783,3.1811,3.1928,3.1984,3.2072,3.2106,3.211,3.2246,3.2228,3.2203,3.2149,3.2261,3.2311,3.2331,3.2073,3.2071,3.207,3.2069,0,0,3.1468,3.1563,3.1588,3.1628,3.1705,3.1772,3.1865,3.1951,3.1997,3.2062,3.2141,3.2259,3.2235,3.2285,3.2295,3.2359,3.2477,3.2326,3.2328,3.2352,3.2631,3.2649,3.2672,3.247,3.2474,3.2477,3.2625,0,3.161,3.1773,3.1789,3.1935,3.2015,3.2004,3.2086,3.2142,3.2171,3.2243,3.2274,3.2357,3.232,3.235,3.2413,3.2449,3.2533,3.2439,3.2544,3.2548,3.2526,3.2698,3.2718,3.2854,3.2644,3.2647,3.265,0,3.1797,3.1865,3.202,3.2085,3.2119,3.2192,3.2271,3.234,3.2404,3.242,3.2476,3.2477,3.2574,3.2516,3.2651,3.2586,3.263,3.2655,3.2661,3.2671,3.2605,3.2713,3.2898,3.2919,3.2681,3.2678,3.2676,0,3.1901,3.2032,3.2141,3.2176,3.2255,3.2306,3.2342,3.2403,3.2453,3.2523,3.2555,3.2636,3.268,3.2743,3.2767,3.2722,3.29,3.2844,3.2917,3.2916,3.2954,3.2951,3.3149,3.2983,3.2983,3.2983,3.2982,0,3.2057,3.2152,3.2189,3.2256,3.2362,3.238,3.2484,3.2518,3.2572,3.2646,3.2642,3.2712,3.2739,3.2814,3.2833,3.2941,3.2961,3.2978,3.2982,3.2978,3.2976,3.3007,3.2998,3.2988,3.2987,3.2986,3.2985,0,3.2191,3.222,3.2338,3.2403,3.2422,3.2497,3.2553,3.2619,3.2645,3.2739,3.2763,3.2805,3.2893,3.2922,3.3029,3.3042,3.3168,3.3164,3.3146,3.3146,3.3217,3.321,3.3442,3.3473,3.3286,3.3288,3.329,0,3.2289,3.2361,3.2434,3.2483,3.252,3.2599,3.2649,3.267,3.2723,3.2801,3.2857,3.2944,3.3014,3.3155,3.3196,3.3278,3.3275,3.3351,3.3288,3.3282,3.3276,3.3271,3.3279,3.3363,3.3365,3.3366,3.3368,0,3.2459,3.247,3.2542,3.262,3.268,3.2743,3.2803,3.2844,3.2873,3.2933,3.3022,3.3076,3.3184,3.3271,3.3354,3.3392,3.3385,3.3387,3.3408,3.3405,3.3391,3.3399,3.3178,3.3382,3.338,3.3379,3.3379,3.3378,3.2578,3.2642,3.2702,3.2784,3.2831,3.2887,3.2952,3.2986,3.306,3.3148,3.3156,3.3252,3.3315,3.3426,3.3468,3.3544,3.3522,3.3553,3.3561,3.3568,3.3573,3.3379,3.3559,3.3559,3.3558,3.3558,3.3558,0,3.2748,3.2786,3.286,3.2944,3.3008,3.2995,3.3062,3.3116,3.32,3.3258,3.3327,3.3429,3.3513,3.356,3.3644,3.3696,3.3695,3.3717,3.3713,3.3722,3.3587,3.356,3.3716,3.3716,3.3716,3.3716,3.3716,3.3716,3.2844,3.295,3.2968,3.3099,3.3137,3.3229,3.3268,3.3321,3.3367,3.3481,3.3549,3.3579,3.3634,3.3722,3.3798,3.381,3.3841,3.3865,3.3875,3.3748,3.3732,3.3716,3.3691,3.3872,3.3872,3.4003,3.4005,3.4006]},{"header":{"parameterUnit":"m.s-1","parameterCategory":1,"la1":30.2991,"la2":30.254,"lo1":-89.0895,"lo2":-89.0444,"dy":0.0017,"dx":0.0017,"nx":28,"ny":28,"refTime":"2025-07-20T09:00:00:Z","depth":0,"parameterNumber":3,"parameterNumberName":"V-component_of_WINDS"},"data":[0,0,0,0,0,0,0,0,0,0,0,0,0,0,0,0,0,0,0,0,0,0,0,0,0,0,0,0,0,0,0,0,0,0,0,0,0,0,0,0,0,0,0,0,0,0,0,0,0,0,0,0,0,0,0,0,0,0,-0.9636,-0.9636,0,-0.9671,-0.9671,-0.9672,-0.9691,-0.9691,-0.9691,-0.9691,-0.9726,-0.9726,-0.9727,0,0,0,0,0,0,0,0,0,0,0,0,0,-0.9584,-0.9585,-0.9636,-0.9636,-0.9637,-0.9671,-0.9671,-0.9672,-0.9691,-0.9691,-0.9691,-0.9691,-0.9725,-0.9726,-0.9727,0,0,0,0,0,0,0,0,0,0,0,0,0,-0.9612,-0.9585,-0.9636,-0.965,-0.9652,-0.9671,-0.9671,-0.9672,-0.9691,-0.9691,-0.9691,-0.9691,-0.9725,-0.9726,-0.9728,-0.9734,0,0,-0.9732,-0.9732,0,0,0,0,0,0,0,0,-0.961,-0.9614,-0.9648,-0.9649,-0.9651,-0.9677,-0.9666,-0.9693,-0.9691,-0.9676,-0.9691,-0.9691,-0.9709,-0.9712,-0.9718,-0.9736,-0.9737,-0.9732,-0.9732,-0.9733,-0.9733,0,0,0,0,0,0,0,-0.9608,-0.9612,-0.965,-0.9648,-0.965,-0.9655,-0.9659,-0.9671,-0.9692,-0.9677,-0.9679,-0.9683,-0.971,-0.9717,-0.9719,-0.9738,-0.9732,-0.9733,-0.9734,-0.9734,-0.9763,-0.9763,0,0,0,0,0,0,-0.9604,-0.961,-0.9649,-0.9651,-0.963,-0.9656,-0.966,-0.9668,-0.9692,-0.9695,-0.9683,-0.9683,-0.9715,-0.9718,-0.972,-0.973,-0.9733,-0.9734,-0.9735,-0.9763,-0.9763,-0.9763,0,0,0,0,0,0,-0.9603,-0.9607,-0.9647,-0.9631,-0.9636,-0.9656,-0.9666,-0.9669,-0.9676,-0.9696,-0.9699,-0.9686,-0.9715,-0.9719,-0.9731,-0.9732,-0.9735,-0.9736,-0.9763,-0.9763,-0.9763,-0.9749,0,0,0,0,0,0,-0.9601,-0.9607,-0.961,-0.9631,-0.9637,-0.9657,-0.9666,-0.967,-0.9678,-0.968,-0.97,-0.9703,-0.9715,-0.9729,-0.9732,-0.9733,-0.9737,-0.9763,-0.9763,-0.9763,-0.975,-0.9749,-0.9748,0,0,0,0,0,-0.9599,-0.9604,-0.961,-0.9614,-0.9641,-0.9657,-0.9661,-0.9675,-0.9678,-0.9681,-0.9694,-0.9702,-0.9731,-0.973,-0.9734,-0.9736,-0.9764,-0.9763,-0.9763,-0.975,-0.9749,-0.9748,0,0,0,0,0,0,-0.9582,-0.9607,-0.9614,-0.9625,-0.9639,-0.9661,-0.9665,-0.9673,-0.9686,-0.9687,-0.9704,-0.9708,-0.9719,-0.9728,-0.9727,-0.9744,-0.9748,-0.9749,-0.9737,-0.9736,-0.9735,-0.9732,-0.9738,0,0,0,0,0,-0.9579,-0.9591,-0.9612,-0.962,-0.9627,-0.9645,-0.9652,-0.9662,-0.9676,-0.9682,-0.9696,-0.971,-0.9722,-0.9729,-0.9742,-0.9752,-0.9756,-0.9755,-0.9754,-0.9753,-0.9753,-0.976,-0.9759,-0.9763,-0.9763,-0.9763,0,0,-0.9574,-0.9589,-0.9595,-0.9617,-0.9629,-0.964,-0.9649,-0.966,-0.9669,-0.9684,-0.9696,-0.9707,-0.9723,-0.9735,-0.974,-0.9743,-0.9753,-0.9753,-0.9752,-0.9753,-0.976,-0.9759,-0.9759,-0.9763,-0.9763,-0.9763,0,0,-0.9571,-0.9583,-0.9592,-0.9603,-0.9621,-0.9633,-0.9635,-0.9656,-0.9663,-0.9676,-0.9688,-0.9698,-0.9719,-0.973,-0.9738,-0.9739,-0.9748,-0.9743,-0.9738,-0.9744,-0.9744,-0.9743,-0.9744,-0.9744,-0.9743,-0.9743,-0.9743,0,-0.9562,-0.9579,-0.9595,-0.9605,-0.9614,-0.9629,-0.9638,-0.9649,-0.9669,-0.9675,-0.9678,-0.9705,-0.9717,-0.9731,-0.9731,-0.9737,-0.974,-0.9741,-0.9742,-0.9742,-0.9742,-0.9743,-0.9743,-0.9743,-0.9743,-0.9743,-0.9743,0,-0.9568,-0.9579,-0.9584,-0.9604,-0.9614,-0.9623,-0.964,-0.9648,-0.9657,-0.9669,-0.9682,-0.9697,-0.9713,-0.9717,-0.9726,-0.9732,-0.9734,-0.9739,-0.9744,-0.9741,-0.9742,-0.9742,-0.9742,-0.9742,-0.9742,-0.9742,0,0,-0.9553,-0.9583,-0.9584,-0.9594,-0.9615,-0.9624,-0.9634,-0.965,-0.9656,-0.967,-0.9679,-0.9697,-0.9702,-0.9712,-0.9722,-0.9727,-0.9727,-0.9732,-0.9733,-0.9731,-0.9736,-0.9732,-0.9732,-0.9733,-0.9733,-0.9733,-0.9735,0,-0.9553,-0.9572,-0.9587,-0.96,-0.9611,-0.9626,-0.9635,-0.9649,-0.966,-0.9671,-0.9683,-0.9695,-0.9701,-0.9707,-0.9713,-0.9726,-0.9729,-0.9726,-0.9741,-0.9742,-0.9737,-0.9732,-0.9728,-0.9728,-0.9735,-0.9735,-0.9735,0,-0.9554,-0.9568,-0.9583,-0.9604,-0.9609,-0.9616,-0.9632,-0.9643,-0.9659,-0.9666,-0.9677,-0.9688,-0.9699,-0.9703,-0.9719,-0.9717,-0.9725,-0.9732,-0.9732,-0.9734,-0.9738,-0.9734,-0.9729,-0.9729,-0.9736,-0.9736,-0.9736,0,-0.9542,-0.9565,-0.9577,-0.9585,-0.9609,-0.9614,-0.9624,-0.964,-0.9649,-0.9663,-0.9669,-0.9683,-0.9691,-0.9703,-0.9717,-0.9719,-0.9732,-0.9737,-0.9738,-0.9738,-0.974,-0.974,-0.9736,-0.9745,-0.9745,-0.9745,-0.9745,0,-0.954,-0.9548,-0.9572,-0.9579,-0.9589,-0.9606,-0.9615,-0.9627,-0.9641,-0.9651,-0.9664,-0.9673,-0.9692,-0.9703,-0.9714,-0.9726,-0.9729,-0.9736,-0.9739,-0.9734,-0.9734,-0.9739,-0.974,-0.9745,-0.9745,-0.9745,-0.9745,0,-0.9528,-0.9544,-0.9558,-0.958,-0.9586,-0.9592,-0.9611,-0.9618,-0.9631,-0.9643,-0.9647,-0.9665,-0.9679,-0.9695,-0.9714,-0.9721,-0.9732,-0.9736,-0.9727,-0.9729,-0.9729,-0.9729,-0.9729,-0.973,-0.9738,-0.9738,-0.9738,0,-0.9525,-0.9533,-0.9555,-0.9563,-0.9573,-0.9585,-0.9594,-0.9611,-0.962,-0.9639,-0.9644,-0.9659,-0.9672,-0.9694,-0.9709,-0.9723,-0.9728,-0.9727,-0.973,-0.9726,-0.9728,-0.9728,-0.9728,-0.9726,-0.9726,-0.9726,-0.9726,0,-0.9519,-0.9527,-0.954,-0.9555,-0.9566,-0.9579,-0.9593,-0.9598,-0.9618,-0.9627,-0.9642,-0.9652,-0.9671,-0.9686,-0.9703,-0.9713,-0.9723,-0.9725,-0.9726,-0.9722,-0.9716,-0.9719,-0.9724,-0.9724,-0.9725,-0.9725,-0.9725,-0.9725,-0.9512,-0.9519,-0.9536,-0.955,-0.9562,-0.9575,-0.9583,-0.9597,-0.9609,-0.9627,-0.9636,-0.965,-0.9667,-0.969,-0.97,-0.9712,-0.9715,-0.9716,-0.9717,-0.9717,-0.9716,-0.9714,-0.9715,-0.9715,-0.9715,-0.9715,-0.9715,0,-0.9506,-0.9518,-0.9531,-0.955,-0.9561,-0.9569,-0.9585,-0.9594,-0.9606,-0.9621,-0.9633,-0.965,-0.9665,-0.9681,-0.9697,-0.9703,-0.9708,-0.9707,-0.9706,-0.9709,-0.9712,-0.971,-0.9703,-0.9703,-0.9703,-0.9703,-0.9703,-0.9703,-0.9504,-0.9516,-0.9526,-0.9545,-0.9557,-0.9571,-0.958,-0.9592,-0.9603,-0.9622,-0.9634,-0.9645,-0.9661,-0.9678,-0.9691,-0.9696,-0.9701,-0.9699,-0.9704,-0.9707,-0.9708,-0.9709,-0.9707,-0.97,-0.9699,-0.97,-0.97,-0.97]}]]